| time (UTC) | temp C | wind direction | speed KPH | gust KPH | rain 1hr cm | rain 24hr cm | rain mn cm | humidity % | barometer mb |
| 20260902095032 | 25 | 208 | 0.0 | 4.8 | 0.00 | 0.00 | 0.00 | 54 | 1021.8 |
| 20260902094026 | 25 | 18 | 0.0 | 3.2 | 0.00 | 0.00 | 0.00 | 54 | 1022.2 |
| 20260902093022 | 25 | 269 | 0.0 | 4.8 | 0.00 | 0.00 | 0.00 | 54 | 1022.2 |
| 20260902092027 | 25 | 239 | 0.0 | 6.4 | 0.00 | 0.00 | 0.00 | 55 | 1022.2 |
| 20260902091029 | 25 | 251 | 0.0 | 1.6 | 0.00 | 0.00 | 0.00 | 57 | 1022.2 |
| 20260902090027 | 23 | 233 | 0.0 | 0.0 | 0.00 | 0.00 | 0.00 | 59 | 1022.2 |
| 20260902085032 | 23 | 251 | 0.0 | 3.2 | 0.00 | 0.00 | 0.00 | 61 | 1022.2 |
| 20260902084025 | 22 | 0.0 | 0.0 | 0.00 | 0.00 | 0.00 | 64 | 1022.1 | |
| 20260902083024 | 22 | 0.0 | 0.0 | 0.00 | 0.00 | 0.00 | 68 | 1022.5 | |
| 20260902082020 | 22 | 0.0 | 0.0 | 0.00 | 0.00 | 0.00 | 67 | 1022.5 | |
| 20260902081021 | 23 | 0.0 | 0.0 | 0.00 | 0.00 | 0.00 | 66 | 1022.2 | |
| 20260902080019 | 23 | 0.0 | 0.0 | 0.00 | 0.00 | 0.00 | 64 | 1022.6 | |
| 20260902075042 | 21 | 309 | 0.0 | 0.0 | 0.00 | 0.00 | 0.00 | 67 | 1022.5 |
| 20260902074028 | 20 | 221 | 0.0 | 0.0 | 0.00 | 0.00 | 0.00 | 73 | 1022.4 |
| 20260902073021 | 18 | 0.0 | 0.0 | 0.00 | 0.00 | 0.00 | 76 | 1022.4 | |
| 20260902072021 | 18 | 0.0 | 0.0 | 0.00 | 0.00 | 0.00 | 76 | 1022.3 | |
| 20260902071033 | 18 | 0.0 | 0.0 | 0.00 | 0.00 | 0.00 | 77 | 1021.7 | |
| 20260902070030 | 18 | 0.0 | 0.0 | 0.00 | 0.00 | 0.00 | 77 | 1022.1 | |
| 20260902065049 | 19 | 0.0 | 0.0 | 0.00 | 0.00 | 0.00 | 80 | 1022.1 | |
| 20260902064022 | 18 | 0.0 | 0.0 | 0.00 | 0.00 | 0.00 | 88 | 1022.0 | |
| 20260902063023 | 16 | 0.0 | 0.0 | 0.00 | 0.00 | 0.00 | 95 | 1022.0 | |
| 20260902062022 | 15 | 0.0 | 0.0 | 0.00 | 0.00 | 0.00 | 97 | 1021.9 | |
| 20260902061021 | 12 | 0.0 | 0.0 | 0.00 | 0.00 | 0.00 | 97 | 1021.5 | |
| 20260902060036 | 12 | 0.0 | 0.0 | 0.00 | 0.00 | 0.00 | 97 | 1021.8 | |
| 20260902055120 | 11 | 0.0 | 0.0 | 0.00 | 0.00 | 0.00 | 97 | 1021.7 | |
| 20260902054029 | 11 | 0.0 | 0.0 | 0.00 | 0.00 | 0.00 | 97 | 1021.8 | |
| 20260902053031 | 11 | 0.0 | 0.0 | 0.00 | 0.00 | 0.00 | 97 | 1021.5 | |
| 20260902052033 | 11 | 0.0 | 0.0 | 0.00 | 0.00 | 0.00 | 97 | 1021.5 | |
| 20260902051027 | 10 | 0.0 | 0.0 | 0.00 | 0.00 | 0.00 | 97 | 1021.4 | |
| 20260902050110 | 10 | 0.0 | 0.0 | 0.00 | 0.00 | 0.00 | 97 | 1021.5 | |
| 20260902045025 | 10 | 0.0 | 0.0 | 0.00 | 0.00 | 0.00 | 97 | 1021.5 | |
| 20260902044052 | 10 | 0.0 | 0.0 | 0.00 | 0.00 | 0.00 | 97 | 1021.5 | |
| 20260902043047 | 10 | 0.0 | 0.0 | 0.00 | 0.00 | 0.00 | 97 | 1021.5 | |
| 20260902042019 | 10 | 0.0 | 0.0 | 0.00 | 0.00 | 0.00 | 97 | 1021.5 | |
| 20260902041053 | 10 | 0.0 | 0.0 | 0.00 | 0.00 | 0.00 | 97 | 1021.6 | |
| 20260902040021 | 10 | 0.0 | 0.0 | 0.00 | 0.00 | 0.00 | 97 | 1021.6 | |
| 20260902035058 | 10 | 0.0 | 0.0 | 0.00 | 0.00 | 0.00 | 97 | 1021.6 | |
| 20260902034032 | 10 | 0.0 | 0.0 | 0.00 | 0.00 | 0.00 | 97 | 1021.7 | |
| 20260902033040 | 10 | 0.0 | 0.0 | 0.00 | 0.00 | 0.00 | 97 | 1021.8 | |
| 20260902032104 | 10 | 0.0 | 0.0 | 0.00 | 0.00 | 0.00 | 97 | 1021.8 | |
| 20260902031021 | 10 | 0.0 | 0.0 | 0.00 | 0.00 | 0.00 | 96 | 1021.4 | |
| 20260902030028 | 10 | 0.0 | 0.0 | 0.00 | 0.00 | 0.00 | 96 | 1021.8 | |
| 20260902025053 | 10 | 0.0 | 0.0 | 0.00 | 0.00 | 0.00 | 96 | 1021.8 | |
| 20260902024030 | 10 | 0.0 | 0.0 | 0.00 | 0.00 | 0.00 | 96 | 1021.7 | |
| 20260902023057 | 10 | 0.0 | 0.0 | 0.00 | 0.00 | 0.00 | 96 | 1021.7 | |
| 20260902022047 | 10 | 0.0 | 0.0 | 0.00 | 0.00 | 0.00 | 96 | 1021.7 | |
| 20260902021045 | 10 | 0.0 | 0.0 | 0.00 | 0.00 | 0.00 | 96 | 1021.6 | |
| 20260902020040 | 10 | 0.0 | 0.0 | 0.00 | 0.00 | 0.00 | 96 | 1021.6 | |
| 20260902015044 | 10 | 0.0 | 0.0 | 0.00 | 0.00 | 0.00 | 96 | 1021.6 | |
| 20260902014025 | 10 | 0.0 | 0.0 | 0.00 | 0.00 | 0.00 | 96 | 1022.0 | |
| 20260902013019 | 10 | 0.0 | 0.0 | 0.00 | 0.00 | 0.00 | 96 | 1021.7 | |
| 20260902012019 | 10 | 0.0 | 0.0 | 0.00 | 0.00 | 0.00 | 95 | 1021.7 | |
| 20260902011045 | 10 | 0.0 | 0.0 | 0.00 | 0.00 | 0.00 | 95 | 1021.7 | |
| 20260902010022 | 10 | 0.0 | 0.0 | 0.00 | 0.00 | 0.00 | 95 | 1021.6 | |
| 20260902005024 | 10 | 0.0 | 0.0 | 0.00 | 0.00 | 0.00 | 95 | 1021.6 | |
| 20260902004028 | 10 | 0.0 | 0.0 | 0.00 | 0.00 | 0.00 | 95 | 1021.6 | |
| 20260902003022 | 10 | 0.0 | 0.0 | 0.00 | 0.00 | 0.00 | 95 | 1021.6 | |
| 20260902002101 | 10 | 0.0 | 0.0 | 0.00 | 0.00 | 0.00 | 95 | 1021.6 | |
| 20260902001031 | 10 | 0.0 | 0.0 | 0.00 | 0.00 | 0.00 | 95 | 1021.6 | |
| 20260902000052 | 11 | 0.0 | 0.0 | 0.00 | 0.00 | 0.00 | 94 | 1021.6 | |
| 20260901235027 | 11 | 0.0 | 0.0 | 0.00 | 0.00 | 0.00 | 94 | 1021.6 | |
| 20260901234032 | 11 | 0.0 | 0.0 | 0.00 | 0.00 | 0.00 | 94 | 1021.6 | |
| 20260901233020 | 11 | 0.0 | 0.0 | 0.00 | 0.00 | 0.00 | 94 | 1021.7 | |
| 20260901232022 | 11 | 0.0 | 0.0 | 0.00 | 0.00 | 0.00 | 94 | 1021.7 | |
| 20260901231023 | 11 | 0.0 | 0.0 | 0.00 | 0.00 | 0.00 | 93 | 1021.7 | |
| 20260901230026 | 11 | 0.0 | 0.0 | 0.00 | 0.00 | 0.00 | 93 | 1021.6 | |
| 20260901225022 | 11 | 0.0 | 0.0 | 0.00 | 0.00 | 0.00 | 93 | 1021.6 | |
| 20260901224049 | 11 | 0.0 | 0.0 | 0.00 | 0.00 | 0.00 | 92 | 1021.9 | |
| 20260901223034 | 11 | 0.0 | 0.0 | 0.00 | 0.00 | 0.00 | 92 | 1022.0 | |
| 20260901222047 | 11 | 0.0 | 0.0 | 0.00 | 0.00 | 0.00 | 91 | 1022.0 | |
| 20260901221100 | 12 | 0.0 | 0.0 | 0.00 | 0.00 | 0.00 | 91 | 1021.6 | |
| 20260901220532 | 12 | 0.0 | 0.0 | 0.00 | 0.00 | 0.00 | 90 | 1021.6 | |
| 20260901215052 | 12 | 0.0 | 0.0 | 0.00 | 0.00 | 0.00 | 90 | 1021.6 | |
| 20260901214040 | 12 | 0.0 | 0.0 | 0.00 | 0.00 | 0.00 | 89 | 1021.6 | |
| 20260901213022 | 12 | 0.0 | 0.0 | 0.00 | 0.00 | 0.00 | 89 | 1021.7 | |
| 20260901212023 | 12 | 0.0 | 0.0 | 0.00 | 0.00 | 0.00 | 89 | 1021.7 | |
| 20260901211206 | 12 | 0.0 | 0.0 | 0.00 | 0.00 | 0.00 | 88 | 1021.7 | |
| 20260901210048 | 12 | 0.0 | 0.0 | 0.00 | 0.00 | 0.00 | 88 | 1021.7 | |
| 20260901205021 | 13 | 0.0 | 0.0 | 0.00 | 0.00 | 0.00 | 87 | 1021.8 | |
| 20260901204021 | 13 | 0.0 | 0.0 | 0.00 | 0.00 | 0.00 | 87 | 1021.4 | |
| 20260901203031 | 13 | 0.0 | 0.0 | 0.00 | 0.00 | 0.00 | 86 | 1021.8 | |
| 20260901202028 | 13 | 0.0 | 0.0 | 0.00 | 0.00 | 0.00 | 86 | 1021.8 | |
| 20260901201054 | 14 | 0.0 | 0.0 | 0.00 | 0.00 | 0.00 | 85 | 1021.4 | |
| 20260901200040 | 14 | 0.0 | 0.0 | 0.00 | 0.00 | 0.00 | 84 | 1021.0 | |
| 20260901195041 | 14 | 0.0 | 0.0 | 0.00 | 0.00 | 0.00 | 82 | 1021.0 | |
| 20260901194056 | 15 | 0.0 | 0.0 | 0.00 | 0.00 | 0.00 | 81 | 1021.4 | |
| 20260901193040 | 15 | 0.0 | 0.0 | 0.00 | 0.00 | 0.00 | 80 | 1021.4 | |
| 20260901192028 | 15 | 0.0 | 0.0 | 0.00 | 0.00 | 0.00 | 79 | 1021.4 | |
| 20260901191032 | 15 | 0.0 | 0.0 | 0.00 | 0.00 | 0.00 | 76 | 1021.4 | |
| 20260901190044 | 16 | 0.0 | 0.0 | 0.00 | 0.00 | 0.00 | 75 | 1021.0 | |
| 20260901185029 | 16 | 0.0 | 0.0 | 0.00 | 0.00 | 0.00 | 74 | 1021.0 | |
| 20260901184021 | 16 | 0.0 | 0.0 | 0.00 | 0.00 | 0.00 | 73 | 1020.8 | |
| 20260901183056 | 16 | 0.0 | 0.0 | 0.00 | 0.00 | 0.00 | 72 | 1020.9 | |
| 20260901182026 | 17 | 0.0 | 0.0 | 0.00 | 0.00 | 0.00 | 72 | 1021.0 | |
| 20260901181035 | 17 | 0.0 | 0.0 | 0.00 | 0.00 | 0.00 | 71 | 1020.6 | |
| 20260901180033 | 17 | 0.0 | 0.0 | 0.00 | 0.00 | 0.00 | 69 | 1020.2 | |
| 20260901175053 | 18 | 0.0 | 0.0 | 0.00 | 0.00 | 0.00 | 67 | 1020.3 | |
| 20260901174041 | 18 | 0.0 | 0.0 | 0.00 | 0.00 | 0.00 | 65 | 1020.3 | |
| 20260901173029 | 19 | 0.0 | 0.0 | 0.00 | 0.00 | 0.00 | 64 | 1020.2 | |
| 20260901172021 | 19 | 0.0 | 0.0 | 0.00 | 0.00 | 0.00 | 63 | 1020.2 | |
| 20260901171021 | 20 | 0.0 | 0.0 | 0.00 | 0.00 | 0.00 | 61 | 1019.9 | |
| 20260901170021 | 20 | 0.0 | 0.0 | 0.00 | 0.00 | 0.00 | 60 | 1020.2 | |
| 20260901165022 | 20 | 0.0 | 0.0 | 0.00 | 0.00 | 0.00 | 59 | 1020.3 | |
| 20260901164032 | 21 | 0.0 | 0.0 | 0.00 | 0.00 | 0.00 | 58 | 1020.3 | |
| 20260901163043 | 21 | 0.0 | 0.0 | 0.00 | 0.00 | 0.00 | 58 | 1020.0 | |
| 20260901162033 | 22 | 241 | 0.0 | 0.0 | 0.00 | 0.00 | 0.00 | 56 | 1020.0 |
| 20260901161040 | 22 | 151 | 0.0 | 0.0 | 0.00 | 0.00 | 0.00 | 53 | 1020.0 |
| 20260901160029 | 22 | 0.0 | 0.0 | 0.00 | 0.00 | 0.00 | 52 | 1020.5 | |
| 20260901155045 | 23 | 0.0 | 0.0 | 0.00 | 0.00 | 0.00 | 52 | 1020.5 | |
| 20260901154021 | 24 | 330 | 0.0 | 0.0 | 0.00 | 0.00 | 0.00 | 50 | 1020.6 |
| 20260901153031 | 25 | 57 | 0.0 | 0.0 | 0.00 | 0.00 | 0.00 | 47 | 1020.3 |
| 20260901152028 | 27 | 323 | 1.6 | 4.8 | 0.00 | 0.00 | 0.00 | 45 | 1020.4 |
| 20260901151035 | 27 | 332 | 0.0 | 0.0 | 0.00 | 0.00 | 0.00 | 45 | 1020.7 |
| 20260901150046 | 27 | 18 | 0.0 | 1.6 | 0.00 | 0.00 | 0.00 | 44 | 1020.4 |
| 20260901145022 | 27 | 294 | 0.0 | 3.2 | 0.00 | 0.00 | 0.00 | 45 | 1020.4 |
| 20260901144021 | 26 | 0.0 | 0.0 | 0.00 | 0.00 | 0.00 | 45 | 1020.7 | |
| 20260901143046 | 26 | 290 | 0.0 | 0.0 | 0.00 | 0.00 | 0.00 | 47 | 1020.3 |
| 20260901142023 | 25 | 4 | 0.0 | 4.8 | 0.00 | 0.00 | 0.00 | 48 | 1020.4 |
| 20260901141041 | 25 | 284 | 0.0 | 0.0 | 0.00 | 0.00 | 0.00 | 48 | 1020.7 |
| 20260901140056 | 25 | 326 | 0.0 | 3.2 | 0.00 | 0.00 | 0.00 | 48 | 1020.6 |
| 20260901135022 | 24 | 339 | 0.0 | 3.2 | 0.00 | 0.00 | 0.00 | 51 | 1020.6 |
| 20260901134020 | 23 | 320 | 0.0 | 0.0 | 0.00 | 0.00 | 0.00 | 51 | 1020.6 |
| 20260901133022 | 25 | 305 | 0.0 | 1.6 | 0.00 | 0.00 | 0.00 | 50 | 1020.3 |
| 20260901132044 | 26 | 338 | 0.0 | 4.8 | 0.00 | 0.00 | 0.00 | 48 | 1020.3 |
| 20260901131030 | 25 | 339 | 0.0 | 1.6 | 0.00 | 0.00 | 0.00 | 50 | 1020.3 |
| 20260901130041 | 24 | 315 | 0.0 | 1.6 | 0.00 | 0.00 | 0.00 | 51 | 1020.6 |
| 20260901125023 | 22 | 331 | 0.0 | 0.0 | 0.00 | 0.00 | 0.00 | 56 | 1020.5 |
| 20260901124022 | 22 | 294 | 0.0 | 0.0 | 0.00 | 0.00 | 0.00 | 55 | 1020.5 |
| 20260901123044 | 23 | 313 | 0.0 | 1.6 | 0.00 | 0.00 | 0.00 | 54 | 1020.6 |
| 20260901122022 | 25 | 311 | 0.0 | 1.6 | 0.00 | 0.00 | 0.00 | 53 | 1020.6 |
| 20260901121021 | 23 | 335 | 0.0 | 3.2 | 0.00 | 0.00 | 0.00 | 52 | 1020.6 |
| 20260901120042 | 24 | 329 | 0.0 | 1.6 | 0.00 | 0.00 | 0.00 | 53 | 1020.6 |
| 20260901115050 | 23 | 283 | 1.6 | 4.8 | 0.00 | 0.00 | 0.00 | 52 | 1020.6 |
| 20260901114022 | 23 | 282 | 1.6 | 6.4 | 0.00 | 0.00 | 0.00 | 55 | 1020.6 |
| 20260901113049 | 22 | 290 | 0.0 | 0.0 | 0.00 | 0.00 | 0.00 | 58 | 1020.6 |
| 20260901112033 | 23 | 0.0 | 0.0 | 0.00 | 0.00 | 0.00 | 58 | 1020.6 | |
| 20260901111029 | 24 | 288 | 0.0 | 1.6 | 0.00 | 0.00 | 0.00 | 55 | 1021.0 |
| 20260901110055 | 23 | 291 | 0.0 | 0.0 | 0.00 | 0.00 | 0.00 | 57 | 1021.0 |
| 20260901105036 | 23 | 266 | 3.2 | 6.4 | 0.00 | 0.00 | 0.00 | 55 | 1021.0 |
| 20260901104021 | 22 | 262 | 1.6 | 8.0 | 0.00 | 0.00 | 0.00 | 58 | 1020.9 |
| 20260901103024 | 22 | 278 | 1.6 | 6.4 | 0.00 | 0.00 | 0.00 | 58 | 1021.2 |
| 20260901102027 | 22 | 285 | 1.6 | 6.4 | 0.00 | 0.00 | 0.00 | 59 | 1021.2 |
| 20260901101026 | 22 | 268 | 1.6 | 4.8 | 0.00 | 0.00 | 0.00 | 60 | 1020.9 |
| 20260901100534 | 22 | 288 | 0.0 | 0.0 | 0.00 | 0.00 | 0.00 | 61 | 1020.9 |